Regional Weather Roundup
Issued by NWS

Home | Current Version | Previous Version | Graphics & Text | Print | Product List | Glossary On
Versions: 1 2 3 4 5 6 7 8 9 10 11 12 13 14 15 16 17 18 19 20 21 22 23 24 25 26 27 28 29 30 31 32 33 34 35 36 37 38 39 40 41 42 43 44 45 46 47 48 49 50
000
ASUS43 KIND 220009
RWRIN

WEATHER ROUNDUP FOR INDIANA
NATIONAL WEATHER SERVICE INDIANAPOLIS IN
800 PM EDT SUN MAY 21 2017

NOTE: "FAIR" INDICATES FEW OR NO CLOUDS BELOW 12,000 FEET WITH NO
SIGNIFICANT WEATHER AND/OR OBSTRUCTIONS TO VISIBILITY.

* - STATION DOES NOT REPORT WEATHER SUCH AS PRECIPITATION OR FOG.

+ - STATION NOT QUALITY CONTROLLED BY THE NATIONAL WEATHER SERVICE.
    USE DATA WITH CAUTION...ESPECIALLY DEWPOINT AND RELATIVE
    HUMIDITY OBSERVATIONS.

INZ001>003-010>013-019-020-220100-
NORTHWEST INDIANA

CITY           SKY/WX    TMP DP  RH WIND       PRES   REMARKS
GARY /AIRPORT/ CLOUDY    57  45  62 W23       29.99S
KNOX *+        CLOUDY    57  37  47 W15       29.99R
LA PORTE +     CLOUDY    57  46  66 W13G18    29.99R
6HR MIN TEMP:  57; 6HR MAX TEMP:  66;

MICHIGAN CITY+ CLOUDY    57  45  62 W9G17     29.99R
MONTICELLO +   CLOUDY    59  48  66 W14G22    30.01R
6HR MIN TEMP:  59; 6HR MAX TEMP:  68;

RENSSELAER +   CLOUDY    57  45  62 W16       30.01S
VALPARAISO     CLOUDY    58  47  66 W15G23    29.99S
6HR MIN TEMP:  58; 6HR MAX TEMP:  68;


$$

LMZ046-743>745-220100-
SOUTHERN LAKE MICHIGAN

STATION/POSITION TIME  TEMP    WIND        PRES    WAVE
                       AIR SEA DIR/SP/G            HT
                 (UTC) (F)     (DEG/KT/KT) (MB)    (FT)
BURNS HARBOR     2340   58     260/ 21/ 23 1015.2F
MICHIGAN CITY    2340   55     250/ 17/ 18   N/A
5NW MICH CITY    0000   54 53  260/ 12/ 17   N/A     3

$$

INZ004-005-014>016-021>024-220100-
NORTH CENTRAL INDIANA

CITY           SKY/WX    TMP DP  RH WIND       PRES   REMARKS
GOSHEN         CLOUDY    61  49  64 W16G23    29.97R
6HR MIN TEMP:  61; 6HR MAX TEMP:  70;

LOGANSPORT +   CLOUDY    59  50  72 W16       30.01R
PERU/GRISSOM   CLOUDY    62  51  67 W15       29.98R
6HR MIN TEMP:  62; 6HR MAX TEMP:  71;

ROCHESTER +    CLOUDY    63  50  63 W8G18     30.00R
SOUTH BEND     CLOUDY    59  48  67 W15G23    29.98R
6HR MIN TEMP:  59; 6HR MAX TEMP:  68;

WARSAW +       CLOUDY    61  48  63 W14G22    29.98R

$$

INZ006>009-017-018-025>027-220100-
NORTHEAST INDIANA

CITY           SKY/WX    TMP DP  RH WIND       PRES   REMARKS
ANGOLA *+      CLOUDY    64  55  72 W12       29.95R
AUBURN +       MOCLDY    64  50  59 W8G16     29.96R
FORT WAYNE     PTCLDY    66  54  65 W15       29.96R
6HR MIN TEMP:  66; 6HR MAX TEMP:  73;

HUNTINGTON +   PTCLDY    65  52  64 W13G23    29.97R
6HR MIN TEMP:  64; 6HR MAX TEMP:  72;

KENDALLVILLE + CLOUDY    63  51  64 W17G23    29.96R

$$

INZ028-029-035-036-043>045-051>053-220100-
WEST CENTRAL INDIANA

CITY           SKY/WX    TMP DP  RH WIND       PRES   REMARKS
CRAWFORDSVL +  CLOUDY    59  51  73 W12       30.03R
6HR MIN TEMP:  59; 6HR MAX TEMP:  68;

GREENCASTLE +  MOCLDY    63  50  63 W5        30.03R
LAFAYETTE      CLOUDY    59  49  69 W15       30.01R
6HR MIN TEMP:  59; 6HR MAX TEMP:  68;

TERRE HAUTE    PTSUNNY   65  50  58 NW13G20   30.02R
6HR MIN TEMP:  65; 6HR MAX TEMP:  73;


$$

INZ030>032-037>040-046>048-054>057-064-065-220100-
CENTRAL INDIANA

CITY           SKY/WX    TMP DP  RH WIND       PRES   REMARKS
CP ATTERBURY + CLEAR     70  52  52 W12       29.99R
COLUMBUS       PTCLDY    72  46  40 W13G18    29.99R
FRANKFORT +    CLOUDY    64  53  69 W16       30.03R
6HR MIN TEMP:  64; 6HR MAX TEMP:  72;

GREENWOOD *+   PTCLDY    69  51  53 W10       30.00R
6HR MIN TEMP:  69; 6HR MAX TEMP:  75;

INDIANAPOLIS   MOCLDY    68  51  54 W16       29.99R
6HR MIN TEMP:  68; 6HR MAX TEMP:  74;

-EAGLE CREEK   MOCLDY    67  53  61 NW13      29.99R
6HR MIN TEMP:  67; 6HR MAX TEMP:  74;

KOKOMO +       MOCLDY    62  53  72 W17       30.00R
6HR MIN TEMP:  62; 6HR MAX TEMP:  71;

MARION +       MOCLDY    64  54  68 NW20      29.99R
MT COMFORT *+  PTCLDY    68  52  56 W15       29.99R
SHELBYVILLE    CLEAR     72  52  49 W10       29.98R
6HR MIN TEMP:  72; 6HR MAX TEMP:  77;

ZIONSVILLE +   PTCLDY    63  52  68 W13G20    30.01R
6HR MIN TEMP:  63; 6HR MAX TEMP:  72;


$$

INZ033-034-041-042-049-050-058-059-220100-
EAST CENTRAL INDIANA

CITY           SKY/WX    TMP DP  RH WIND       PRES   REMARKS
MUNCIE         CLEAR     70  55  59 NW10      29.97R
6HR MIN TEMP:  70; 6HR MAX TEMP:  77;

RICHMOND +     CLEAR     70  55  60 W14       29.98R

$$

INZ060-061-067>069-081>083-085>088-220100-
SOUTHWEST INDIANA

CITY           SKY/WX    TMP DP  RH WIND       PRES   REMARKS
EVANSVILLE     CLEAR     73  51  46 NW10G20   30.01R
6HR MIN TEMP:  73; 6HR MAX TEMP:  79; 6HR PCP: TRACE;

HUNTINGBURG *+ CLEAR     71  54  54 NW12      30.01R
6HR MIN TEMP:  70; 6HR MAX TEMP:  76;

WASHINGTON +   MOCLDY    71  49  46 W13       30.00S
6HR MIN TEMP:  70; 6HR MAX TEMP:  74;


$$

INZ062-063-066-070>080-084-089>092-220100-
SOUTH CENTRAL AND SOUTHEAST INDIANA

CITY           SKY/WX    TMP DP  RH WIND       PRES   REMARKS
BLOOMINGTON    PTCLDY    69  51  52 W10       30.00S
6HR MIN TEMP:  69; 6HR MAX TEMP:  74;

MADISON *+     CLEAR     73  57  56 W7        30.00S
NORTH VERNON + CLEAR     72  57  60 W8        29.99R
SEYMOUR +      CLEAR     73  54  49 W9G18     29.98S

$$





USA.gov is the U.S. government's official web portal to all federal, state and local government web resources and services.